Regional Weather Roundup
Issued by NWS Austin/San Antonio, TX

Home | Current Version | Previous Version | Text Only | Print | Product List | Glossary On
Versions: 1 2 3 4 5 6 7 8 9 10 11 12 13 14 15 16 17 18 19 20 21 22 23 24 25 26 27 28 29 30 31 32 33 34 35 36 37 38 39 40 41 42 43 44 45 46 47 48 49 50
000
ASUS44 KEWX 191002
RWREWX
SOUTH TEXAS REGIONAL WEATHER ROUNDUP
NATIONAL WEATHER SERVICE AUSTIN/SAN ANTONIO TX
500 AM CDT THU OCT 19 2017

NOTE: "FAIR" INDICATED FEW OR NO CLOUDS BELOW 12,000 FEET WITH NO
SIGNIFICANT WEATHER AND/OR OBSTRUCTIONS TO VISIBILITY.

* - THESE STATIONS ARE NOT NWS OR FAA STATIONS...AND ARE NOT SUBJECT
    TO NWS AND FAA QUALITY CONTROL.

TXZ171-172-183>190-191100-
TEXAS HILL COUNTRY AND EDWARDS PLATEAU

CITY           SKY/WX    TMP DP  RH WIND       PRES   REMARKS
JUNCTION       PTCLDY    47  44  90 NW5       30.10S WCI  45
*LLANO         PTCLDY    54  48  82 CALM      30.14S
BURNET         PTCLDY    57  52  83 CALM      30.13F
*HORSESHOE BAY PTCLDY    58  54  86 S3        30.11S
*KERRVILLE     CLOUDY    51  49  95 CALM      30.11F
*FREDERICKSBRG PTCLDY    46  43  88 CALM      30.12S
*ROCKSPRINGS   NOT AVBL
*BOERNE STAGE  PTCLDY    46  46 100 CALM      30.12F
*CASTROVILLE   PTCLDY    53  51  93 NW5       30.11F
HONDO          PTCLDY    54  51  90 NE7       30.09F
*UVALDE        PTCLDY    54  52  95 NE6       30.09F
DEL RIO        CLEAR     59  54  83 SE10      30.05F
LAUGHLIN AFB   NOT AVBL
CARRIZO SPRGS  CLEAR     54  52  94 CALM      30.07S
*EAGLE PASS    NOT AVBL
$$

TXZ173-191>194-202-209-217>225-228-191100-
CENTRAL AND SOUTH CENTRAL TEXAS

CITY           SKY/WX    TMP DP  RH WIND       PRES   REMARKS
GEORGETOWN     CLEAR     56  52  86 CALM      30.13
AUSTIN/BERGSTM PTCLDY    52  52 100 CALM      30.11S
AUSTIN/MABRY   CLEAR     59  55  87 CALM      30.11F
*AUSTIN/EXEC   PTCLDY    55  54  94 CALM      30.12S
*LAGO VISTA    CLEAR     62  60  92 S3        30.12S
SAN MARCOS       N/A    N/A N/A N/A MISG        N/A
NEW BRAUNFELS  PTCLDY    54  52  93 N3        30.09S
RANDOLPH AFB   PTCLDY    54  51  92 NW6       30.10S
PT SAN ANTONIO MOCLDY    54  52  92 N5        30.08S
SAN ANTONIO    PTCLDY    56  53  90 NW3       30.10F
STINSON FIELD  CLOUDY    57  55  93 CALM      30.08S
*LA GRANGE     PTCLDY    56  55  94 CALM      30.09S
*GIDDINGS      PTCLDY    53  52  95 CALM      30.11F
*GONZALES      CLOUDY    57  57 100 CALM      30.10R FOG
$$

TXZ163>164-176>182-195>201-210>213-226-227-235-191100-
SOUTHEAST TEXAS

CITY           SKY/WX    TMP DP  RH WIND       PRES   REMARKS
COLLEGE STN    PTCLDY    59  56  89 CALM      30.12S
*BRYAN         PTCLDY    54  54 100 CALM      30.14S
*CALDWELL      PTCLDY    55  54  97 N3        30.12S
*CROCKETT        N/A     54  52  94 CALM      30.16F
*BRENHAM       PTCLDY    57  57  98 CALM      30.11S FOG
HUNTSVILLE     CLOUDY    59  55  87 CALM      30.12S FOG
CONROE         MOCLDY    54  53  97 CALM      30.11S FOG
HOUSTON BUSH   MOCLDY    63  62  97 CALM      30.10S
HOUSTON HOBBY  MOCLDY    70  63  78 CALM      30.09S
*HOUSTON SW AP CLOUDY    61  60  96 CALM      30.10S
PEARLAND       PTCLDY    66  60  81 CALM      30.10S
HOUSTON HOOKS  MOCLDY    61  60  97 CALM      30.11S FOG
ELLINGTON FLD  MOCLDY    68  61  77 CALM      30.10S
SUGAR LAND     MOCLDY    65  61  87 CALM      30.09S
*HOUSTON EXEC  CLOUDY    59  59 100 NE5       30.11S FOG
*CLEVELAND MUN CLOUDY    56  55  95 CALM      30.13R FOG
*WHARTON       CLEAR     59  58  97 CALM      30.09S FOG
*COLUMBUS      FAIR      56  55  95 CALM      30.11S FOG
*EAGLE LAKE    MOSUNNY   58  58 100 CALM      30.09S FOG
$$

TXZ214>216-236>238-191100-
THE UPPER TEXAS COAST

CITY           SKY/WX    TMP DP  RH WIND       PRES   REMARKS
*ORANGE        CLOUDY    64  64 100 E3        30.13R
PORT ARTHUR    CLOUDY    66  64  93 E5        30.10S
GALVESTON      MOCLDY    78  64  61 SE8       30.09S
ANGLETON       PTCLDY    63  61  93 CALM      30.08F
*BAY CITY      CLEAR     61  61 100 CALM      30.07S
PALACIOS       CLEAR     59  58  96 NE6       30.06F
$$

TXZ229>234-239>247-191100-
TEXAS COASTAL BEND AND RIO GRANDE PLAINS

CITY           SKY/WX    TMP DP  RH WIND       PRES   REMARKS
VICTORIA       CLEAR     57  55  93 N5        30.08S FOG
*BEEVILLE      CLEAR    N/A N/A N/A N3        30.06F
ROCKPORT       PTCLDY    68  66  93 CALM      30.04F
*PORT ARANSAS  NOT AVBL
*PORT LAVACA   PTCLDY    61  59  93 N5        30.07S
*INGLESIDE     NOT AVBL
CORPUS CHRISTI MOCLDY    63  62  97 N6        30.04F
CORPUS NAS     NOT AVBL
*ROBSTOWN      PTCLDY    63  60  91 N3        30.05F
ALICE          PTCLDY    61  59  93 N5        30.05F
KINGSVILLE NAS NOT AVBL
COTULLA        CLEAR     60  57  89 E3        30.07S
*FAITH RANCH   CLEAR     63  61  94 SE6       30.06S
LAREDO         CLEAR     65  62  90 SE7       30.06F
$$

TXZ248>255-191100-
DEEP SOUTH TEXAS

CITY           SKY/WX    TMP DP  RH WIND       PRES   REMARKS
BROWNSVILLE    CLEAR     69  66  90 NW3       30.03S
PORT ISABEL    CLEAR     69  66  90 W6        30.02F
*SOUTH PADRE   NOT AVBL
HARLINGEN      MOCLDY    67  66  97 N3        30.02F
*HEBBRONVILLE  CLEAR     57  55  94 CALM      30.07S
MCALLEN        CLEAR     67  64  90 CALM      30.04F
*WESLACO       PTCLDY    64  62  94 CALM      30.03S
FALFURRIAS     PTCLDY    63  60  90 CALM      30.05S
EDINBURG       CLEAR     63  60  91 CALM      30.04F
*ZAPATA        CLEAR     60  59  97 CALM      30.05F
$$

TXZ213>215-236>238-242>244-246-247-251-254-255-191100-
CMAN STATIONS

STATION/POSITION TIME  TEMP    WIND        PRES    WAVE
                       AIR SEA DIR/SP/G            HT/PER
                 (UTC) (F)     (DEG/KT/KT) (MB)    (FT/S)
SABINE PASS      0900   69 76   40/  4/  6 1020.7
SEA RIM ST PARK  0900   67      50/  6/  6 1019.7
NORTH JETTY/GLS  0900      77  140/ 12/ 14 1018.3
EAGLE POINT      0900   75 73  150/  5/  7 1018.9
MORGANS POINT    0900   72 77   80/  5/  7 1018.9
PORT O`CONNOR    0900   76 77  110/  7/  8 1017.5
MALAQUITE BEACH  0900   79 79  130/ 10/ 12 1016.9
BAFFIN BAY       0900   75 75  130/  3/  4 1017.3
PORT ISABEL      0900   71 78  260/  4/  5 1016.6
$$



USA.gov is the U.S. government's official web portal to all federal, state and local government web resources and services.